Location: Melbourne
(37.8120°S, 144.9677°E)
Time: 08:20:41
(UTC+10:00)

ISS - Visible Passes

Search period start: 02 September 2015 00:00
Search period end: 12 September 2015 00:00
Orbit: 400 x 402 km, 51.6° (Epoch: 01 September)

Date Brightness Start Highest point End Pass type
(mag) Time Alt. Az. Time Alt. Az. Time Alt. Az.
02 Sep -1.5 19:53:50 10° NW 19:55:30 27° NW 19:55:30 27° NW visible
03 Sep -2.7 19:00:50 10° NNW 19:03:54 38° NE 19:05:09 27° E visible
03 Sep 0.3 20:37:40 10° W 20:37:48 11° W 20:37:48 11° W visible
04 Sep -2.2 19:43:51 10° WNW 19:46:59 40° SW 19:47:19 38° SSW visible
05 Sep -3.2 18:50:22 10° NW 18:53:39 80° SW 18:56:41 12° SE visible
05 Sep 0.0 20:28:35 10° WSW 20:29:19 13° SW 20:29:19 13° SW visible
06 Sep -1.0 19:34:22 10° W 19:37:00 21° SSW 19:38:34 16° S visible
07 Sep -1.8 18:40:29 10° W 18:43:33 34° SSW 18:46:38 10° SE visible
08 Sep -0.5 19:25:23 10° SW 19:27:09 13° SSW 19:28:52 10° SSE visible
09 Sep -0.9 18:31:06 10° WSW 18:33:36 19° SSW 18:36:04 10° SSE visible
